Regional Weather Roundup
Issued by NWS

Home | Current Version | Previous Version | Text Only | Print | Product List | Glossary On
Versions: 1 2 3 4 5 6 7 8 9 10 11 12 13 14 15 16 17 18 19 20 21 22 23 24 25 26 27 28 29 30 31 32 33 34 35 36 37 38 39 40 41 42 43 44 45 46 47 48 49 50
000
ASUS43 KMKX 050400
RWRWI

WISCONSIN REGIONAL WEATHER ROUNDUP
NATIONAL WEATHER SERVICE MILWAUKEE/SULLIVAN WI
1100 PM CDT MON MAY 04 2015

NOTE: "FAIR" INDICATES FEW OR NO CLOUDS BELOW 12,000 FEET WITH NO
SIGNIFICANT WEATHER AND/OR OBSTRUCTIONS TO VISIBILITY.

WIZ001-002-006>008-014>016-023>028-050500-
NORTHWEST WISCONSIN

CITY           SKY/WX    TMP DP  RH WIND       PRES   REMARKS
SUPERIOR ARPT  CLEAR     46  30  53 NE3       30.22R
ASHLAND        CLEAR     41  38  89 CALM      30.24R
HAYWARD        CLEAR     43  32  65 CALM      30.23R
SIREN          CLEAR     43  33  65 CALM      30.22R
CUMBERLAND     CLEAR     50  32  50 NE3       30.21R
RICE LAKE      CLEAR     52  31  43 NE3       30.22R
CHETEK         CLEAR     50  38  62 CALM      30.21R
LADYSMITH      CLEAR     53  25  33 NE7       30.23S
EAU CLAIRE     NOT AVBL
MENOMONIE      PTCLDY    54  43  67 NW3       30.20R
NEW RICHMOND   CLEAR     49  35  57 N5        30.20S
OSCEOLA        CLEAR     50  38  65 CALM      30.23R
$$

WIZ003>005-009-010-017-018-050500-
NORTH CENTRAL WISCONSIN

CITY           SKY/WX    TMP DP  RH WIND       PRES   REMARKS
MANITOWISH WTR CLEAR     40  31  69 CALM      30.25R
ARBOR VITAE    CLEAR     44  24  46 N3        30.24S
WOODRUFF       CLEAR     44  24  46 N3        30.24S
RHINELANDER    PTCLDY    50  28  42 E5        30.26R
EAGLE RIVER    CLEAR     44  31  60 CALM      30.25R
LAND O LAKES   CLEAR     38  33  79 NW3       30.26R
PHILLIPS       CLEAR     47  24  39 CALM      30.23R
TOMAHAWK       PTCLDY    43  29  57 CALM      30.24R
MEDFORD        PTCLDY    55  27  34 NE10      30.21R
MERRILL        PTCLDY    55  39  56 E6        30.23R
$$

WIZ029-030-035-036-043>047-050500-
CENTRAL WISCONSIN

CITY           SKY/WX    TMP DP  RH WIND       PRES   REMARKS
WAUSAU         CLEAR     53  41  63 E8        30.21R
MOSINEE        CLEAR     54  39  58 E8        30.23R
MARSHFIELD     PTCLDY    55  39  54 E10       30.20R
STEVENS POINT  PTCLDY    53  40  62 E8        30.22R
WAUPACA        PTCLDY    56  40  54 CALM      30.23S
WAUTOMA        NOT AVBL
WISC RAPIDS    FAIR      55  40  56 E9        30.21R
CAMP DOUGLAS   NOT AVBL
$$

WIZ011>013-019>022-031-037>040-048>050-050500-
NORTHEAST WISCONSIN

CITY           SKY/WX    TMP DP  RH WIND       PRES   REMARKS
ANTIGO         PTCLDY    51  41  68 SE8       30.25R
SHAWANO        PTCLDY    54  40  59 E7        30.25R
OCONTO         PTCLDY    49  36  59 E5        30.26R
STURGEON BAY   MOCLDY    48  32  53 E6        30.28R
GREEN BAY      PTCLDY    54  36  50 E10       30.24R
MANITOWOC      NOT AVBL
APPLETON       MOCLDY    55  36  47 E8        30.23R
CLINTONVILLE   MOCLDY    52  39  62 NE5       30.24R
OSHKOSH        MOCLDY    55  39  54 E3        30.22R
$$

WIZ032>034-041-042-053>061-050500-
SOUTHWEST WISCONSIN

CITY           SKY/WX    TMP DP  RH WIND       PRES   REMARKS
LA CROSSE      MOCLDY    58  46  64 N3        30.16R
SPARTA         MOCLDY    49  40  70 CALM      30.18S
VIROQUA        MOCLDY    58  40  51 NE8       30.17S
BOSCOBEL       CLOUDY    63  52  67 NE3       30.15R
PRAIRIE DU CHI CLOUDY    64  53  68 CALM      30.13S
PLATTEVILLE    CLOUDY    64  59  85 E12       30.15R
$$

WIZ056-057-062-063-064-067-068-050500-
SOUTH CENTRAL WISCONSIN

CITY           SKY/WX    TMP DP  RH WIND       PRES   REMARKS
REEDSBURG      MOCLDY    62  47  57 E7        30.17S
BARABOO/DELLS  MOCLDY    60  33  36 E8        30.17S
LONE ROCK      NOT AVBL
MINERAL POINT  CLOUDY    63  46  55 E10       30.16S
MADISON        MOCLDY    59  36  42 SE6       30.18S
MIDDLETON      MOCLDY    61  36  39 E6        30.19R
WATERTOWN      CLOUDY    55  40  56 E5        30.19F
MONROE         CLOUDY    59  43  55 E8        30.17S
JANESVILLE     MOCLDY    57  37  47 E7        30.18R
$$

WIZ051-052-058>065-066-070>072-050500-
SOUTHEAST WISCONSIN

CITY           SKY/WX    TMP DP  RH WIND       PRES   REMARKS
MILWAUKEE      PTCLDY    51  32  48 NE5       30.21R
WAUKESHA       CLEAR     50  34  53 CALM      30.22S
MILWAUKEE/TIMM PTCLDY    52  32  46 CALM      30.22S
RACINE         CLEAR     51  35  54 N3        30.22S
BURLINGTON     PTCLDY    51  35  55 CALM      30.20S
KENOSHA        CLEAR     50  38  63 N3        30.20S
FOND DU LAC    MOCLDY    54  33  45 E5        30.21R
SHEBOYGAN      MOCLDY    45  35  68 NE6       30.22S
WEST BEND      MOCLDY    50  32  50 CALM      30.22R
JUNEAU         MOCLDY    54  40  60 E7        30.21S
$$

LSZ147-162-050500-
LAKE SUPERIOR

STATION/POSITION TIME  TEMP    WIND        PRES    WAVE
                       AIR SEA DIR/SP/G            HT/PER
                 (UTC) (F)     (DEG/KT/KT) (MB)    (FT/S)
W MID LAKE BUOY  0250   43 35  340/  6/  6 1024.7R   0
DEVILS ISLAND    0300   58     150/  6/  7 1023.8R
PORT WING        0300   52     130/  3/  6 1023.0R
SAXON HARBOR     0340   45        CALM     1023.4R
$$

LMZ867-665-643>646-050500-
LAKE MICHIGAN

STATION/POSITION TIME  TEMP    WIND        PRES    WAVE
                       AIR SEA DIR/SP/G            HT/PER
                 (UTC) (F)     (DEG/KT/KT) (MB)    (FT/S)
CHAMBERS ISLAND  0300   49     100/  5/  6 1024.4R
NORTHPORT PIER   0300   46     160/  3/  6 1024.4R
SISTER BAY       0302   45        CALM       N/A
KEWAUNEE LAKESHO 0300   47      50/  6/  9 1023.3R
SHEBOYGAN LAKESH 0300   47      20/ 10/ 12 1023.5R
PORT WASHINGTON  0300   54      10/  5/  9 1023.4
ATWATER BUOY     0300   49     310/  6/  6 1024.2R
MILWAUKEE LAKESH 0300   54     360/  6/  8   N/A
KENOSHA   LAKESH 0300   50     350/  4/  4 1022.7R
$$

TC  - TEMPERATURE IN CELSIUS
VSB - VISIBILITY IN STATUTE MILES
WCI - WIND CHILL INDEX
HX  - HEAT INDEX



USA.gov is the U.S. government's official web portal to all federal, state and local government web resources and services.